Location: Plainartige
(45.6866°N, 1.7993°E)
Time: 07:57:52
(UTC+00:00)

Cosmos 1943 Rocket - Pass Details

Date: 03 March 2021
Orbit: 811 x 845 km, 71.0° (Epoch: 10 April)

Event Time Altitude Azimuth Distance (km) Brightness Sun altitude
Rises 20:43:10 0° 341° (NNW) 3,415 5.9 -31.6°
Reaches altitude 10° 20:46:14 10° 356° (N) 2,475 4.9 -32.1°
Enters shadow 20:48:14 17° 14° (NNE) 2,007 4.2 -32.4°
